Racecast

2022 Border Wars XC (UT, CO, AZ, ID, NM, WY, NV)

Valley Regional Park · 5000m · Girls · Compiled · UT

626 runners from 6 divisions

These divisions were run separately. This is how their times compare, not how they finished — the places and scores below were never contested.

View full meet →

Team scores

Place Team Points 12345 67
1 Mountain Ridge (UT) 68 4 6 9 21 28 60 83
2 Springville (UT) 92 7 10 17 19 39 68 85
3 Preston (ID) 157 26 27 29 35 40 56 58
4 Weber (UT) 171 12 15 45 47 52 65 88
5 Cedar City (UT) 188 18 25 37 44 64 72 179
6 Durango (CO) 213 30 38 41 51 53 86 96
7 Westlake (UT) 239 1 8 13 93 124 131 141
8 Pine View (UT) 260 20 32 42 82 84 140 150
9 Idaho Falls (ID) 290 22 34 59 74 101 127 172
10 Farmington (UT) 338 23 55 79 89 92 111 152
11 Skyridge (UT) 372 14 61 71 109 117 128 159
12 Timpview (UT) 388 3 50 94 107 134 153 162
13 Riverton (UT) 400 31 67 78 95 129 133 157
14 Bingham (UT) 407 24 33 73 135 142 166 186
15 Viewmont (UT) 409 16 36 100 120 137 138 139
16 Layton (UT) 451 5 90 112 119 125 177 195
17 Davis (UT) (UT) 522 63 80 97 122 160 175 189
18 Fremont (UT) 530 54 66 69 165 176 178 193
19 Lone Peak (UT) 533 75 81 98 130 149 161 169
20 Northridge (UT) 535 62 91 102 136 144 185 203
21 Evanston Senior (WY) 552 49 77 110 116 200 212 220
22 Desert Hills (UT) 588 57 115 121 147 148 171 173
23 Bonneville (Ogden) (UT) 628 2 105 123 168 230 239 249
24 Snow Canyon (UT) 706 104 106 132 170 194 197 204
25 Union (UT) 775 11 113 206 222 223 255 260
26 Spanish Fork (UT) 806 70 118 201 208 209 213 216
27 Salem Hills (UT) 807 43 158 191 198 217 219 226
28 Snake River (ID) 823 126 146 181 182 188 241 248
29 Morgan (UT) 841 103 156 164 187 231 251 253
30 Spring Creek (NV) 852 99 154 163 211 225 242 244
31 Bountiful (UT) 861 76 151 192 215 227 232 254
32 Elko (NV) 884 143 167 174 190 210 229 256
33 Blackfoot (ID) 890 145 155 183 202 205 221 238
34 Hillcrest (UT) 892 108 114 199 235 236 258 265
35 Lyman (WY) 965 46 214 228 237 240 246
36 Provo (UT) 999 48 196 224 252 279
37 Summit Academy (UT) 1055 87 180 257 261 270 273
38 Hurricane (UT) 1135 207 218 233 234 243 245 250
39 Evanston Senior (UT) 1243 184 262 263 266 268 271 272
40 Tintic (UT) 1320 247 259 267 269 278
41 Rowland Hall (UT) 1366 264 274 275 276 277

Not scored, fewer than five finishers: Cedar Valley (4), West Jordan (4), Mountain View (3), Waterford (2), Westlake (1)

Results

Place Athlete Grade School Time Rating Points Actual race
1 Shelby Jensen 12 Westlake (CA) 1 18:15.5 137.8 1 1
2 Sienna Barton 11 Bonneville (Ogden) (UT) 1 18:25.0 136.6 2 2
3 Daphne Iosua 10 Timpview (UT) 1 18:37.5 135.1 3 3
4 Taylor Jorgensen 12 Mountain Ridge (AZ) 1 18:40.8 134.7 4 4
5 Hailey Low 12 Layton (UT) 1 18:41.7 134.6 5 1
6 Cailey Bracken 11 Mountain Ridge (AZ) 2 18:45.3 134.1 6 5
7 Emily Sumsion 11 Springville (UT) 1 18:52.8 133.3 7 6
8 Mya Curtis 10 Westlake (CA) 2 18:53.6 133.2 8 7
9 Elayna Loveridge 12 Mountain Ridge (AZ) 3 18:54.8 133.0 9 8
10 Sarah Galbraith 12 Springville (UT) 2 18:55.2 133.0 10 9
11 Jaylie Jenkins 10 Union (CA) 1 18:57.3 132.7 11 2
12 Sarah Dye 11 Weber (UT) 1 18:58.2 132.6 12 10
13 Millie Robinson 10 Westlake (CA) 3 18:58.5 132.6 13 11
14 Kylie Olsen 12 Skyridge (WA) 1 19:03.7 132.0 14 12
15 Eden Burton 11 Weber (UT) 2 19:07.2 131.6 15 13
16 Naomi Egnew 11 Viewmont (UT) 1 19:11.6 131.1 16 14
17 Savannah Galbraith 10 Springville (UT) 3 19:13.9 130.8 17 15
18 Emma Page 12 Cedar City (UT) 1 19:17.6 130.4 18 16
19 Lydia Templeman 12 Springville (UT) 4 19:22.2 129.9 19 17
20 Brooklyn Hill 12 Pine View (UT) 1 19:24.3 129.7 20 18
21 Brooklyn Tarr 9 Mountain Ridge (AZ) 4 19:28.8 129.2 21 19
22 Elanor Eddington 12 Idaho Falls (ID) 1 19:30.6 128.9 22 3
23 Skye Siddoway 10 Farmington (MO) 1 19:35.3 128.4 23 20
24 Becca Ferre 12 Bingham (UT) 1 19:36.5 128.3 24 21
25 Mayce Dalton 11 Cedar City (UT) 2 19:37.3 128.2 25 22
26 Tenley Kirkbride 10 Preston (ID) 1 19:39.0 128.0 26 23
27 Angelie Scott 11 Preston (ID) 2 19:40.3 127.9 27 24
28 Whitney Bartlett 12 Mountain Ridge (AZ) 5 19:44.6 127.4 28 25
29 Maren Leffler 11 Preston (ID) 3 19:47.3 127.1 29 26
30 Willow Lott 12 Durango (CO) 1 19:48.5 127.0 30 27
31 Lucy Schofield 10 Riverton (UT) 1 19:48.5 127.0 31 4
32 Adri Baker 12 Pine View (UT) 2 19:49.5 126.9 32 28
33 Avery Benson 12 Bingham (UT) 2 19:51.3 126.7 33 29
34 Allie Lemons 12 Idaho Falls (ID) 2 19:51.5 126.7 34 5
35 Myah Atchley 10 Preston (ID) 4 19:53.8 126.5 35 30
36 Brynn Rees 12 Viewmont (UT) 2 19:54.4 126.4 36 31
37 Marisa Oveson 12 Cedar City (UT) 3 19:55.8 126.2 37 32
38 Mira Quayle 9 Durango (CO) 2 19:56.6 126.2 38 33
39 Brianna Young 10 Springville (UT) 5 20:00.8 125.7 39 34
40 Elly Jeppsen 11 Preston (ID) 5 20:01.3 125.7 40 35
41 Dewa Ilg 10 Durango (CO) 3 20:02.9 125.5 41 36
42 Katherine (Kate) Jones 11 Pine View (UT) 3 20:03.3 125.5 42 37
43 Kambrie Wilkinson 11 Salem Hills (UT) 1 20:03.5 125.4 43 6
44 Callie Peterson 11 Cedar City (UT) 4 20:04.2 125.3 44 38
45 Rodarte Gracie 9 Weber (UT) 3 20:04.5 125.3 45 39
46 Karly Sabey 10 Lyman (FL) 1 20:07.3 125.0 46 7
47 Joy Shelby 9 Weber (UT) 4 20:07.4 125.0 47 40
48 Anna Cannegieter 12 Provo (UT) 1 20:07.4 125.0 48 8
49 Jocelyn Capener 11 Evanston Senior (UT) 1 20:08.2 124.9 49 41
50 Ellie Esplin 10 Timpview (UT) 2 20:09.2 124.8 50 42
51 Bryn Aggeler 10 Durango (CO) 4 20:09.4 124.8 51 43
52 Cadence Keyes 11 Weber (UT) 5 20:09.6 124.8 52 44
53 Sofia Voss 10 Durango (CO) 5 20:10.0 124.8 53 45
54 Taylee Richards 10 Fremont (MI) 1 20:10.0 124.8 54 46
55 Ella Miller 10 Farmington (MO) 2 20:10.0 124.8 55 47
56 Oakley Reid 11 Preston (ID) 6 20:10.6 124.7 56 48
57 Addison Pettingill 12 Desert Hills (UT) 1 20:12.2 124.5 57 49
58 Ashley Scott 10 Preston (ID) 7 20:12.2 124.5 58 50
59 Jaycee Jensen 9 Idaho Falls (ID) 3 20:12.6 124.5 59 9
60 Lauren Horsley 11 Mountain Ridge (AZ) 6 20:13.5 124.4 60 51
61 Elise Hartsell 12 Skyridge (WA) 2 20:14.7 124.3 61 52
62 Lissie Hill 12 Northridge (IN) 1 20:14.7 124.3 62 53
63 Kenedy Maudsley 12 Davis (UT) (UT) 1 20:15.7 124.2 63 54
64 Lucy Eckley 10 Cedar City (UT) 5 20:16.8 124.1 64 55
65 McCall Dalpais 11 Weber (UT) 6 20:18.3 123.9 65 56
66 Laynee Rowley 12 Fremont (MI) 2 20:18.8 123.8 66 57
67 Ryann Jones 12 Riverton (UT) 2 20:19.0 123.8 67 10
68 Maya Boyer 9 Springville (UT) 6 20:19.0 123.8 68 1
69 Indianna Lundell 10 Fremont (MI) 3 20:20.2 123.7 69 58
70 Sarah Seeley 12 Spanish Fork (UT) 1 20:20.6 123.7 70 11
71 Lucy Hawkins 9 Skyridge (WA) 3 20:21.0 123.6 71 59
72 Shelby Thorley 10 Cedar City (UT) 6 20:21.3 123.6 72 60
73 Katelyn Perry 12 Bingham (UT) 3 20:23.2 123.4 73 61
74 Ivy Petersen 9 Idaho Falls (ID) 4 20:23.5 123.4 74 12
75 Meg Pavia 12 Lone Peak (UT) 1 20:23.9 123.3 75 13
76 Lydia Sullivan 11 Bountiful (UT) 1 20:23.9 123.3 76 14
77 Jasmine Tapia 10 Evanston Senior (UT) 2 20:24.3 123.3 77 62
78 Chloe Swain 9 Riverton (UT) 3 20:25.3 123.2 78 15
79 Ayla Kazmar 11 Farmington (MO) 3 20:26.2 123.1 79 63
80 Kate Larsen 11 Davis (UT) (UT) 2 20:27.2 123.0 80 64
81 Camille Leininger 11 Lone Peak (UT) 2 20:28.3 122.9 81 16
82 Ma'a Faumui 10 Pine View (UT) 4 20:29.6 122.8 82 65
83 Grace Waite 11 Mountain Ridge (AZ) 7 20:30.3 122.7 83 66
84 Katie Finch 11 Pine View (UT) 5 20:31.0 122.6 84 67
85 Autumn Sunday 11 Springville (UT) 7 20:31.3 122.6 85 1
86 Nina Quayle 12 Durango (CO) 6 20:31.4 122.6 86 68
87 Isabelle McCullough 10 Summit Academy (UT) 1 20:32.2 122.5 87 1
88 Merin Urban 12 Weber (UT) 7 20:33.9 122.3 88 2
89 Alexis Bradshaw 10 Farmington (MO) 4 20:34.6 122.3 89 69
90 Carli Nelson 12 Layton (UT) 2 20:34.6 122.3 90 17
91 Alexis (Lexy) Cluff-Baylon 10 Northridge (IN) 2 20:35.2 122.2 91 70
92 Brooklyn Bement 11 Farmington (MO) 5 20:38.3 121.9 92 71
93 Talia Anderson 9 Westlake (CA) 4 20:39.5 121.8 93 2
94 Hannah Calvin 11 Timpview (UT) 3 20:40.3 121.7 94 72
95 Mya Oyler 10 Riverton (UT) 4 20:41.8 121.6 95 18
96 Caprice Winn 11 Mountain View (CA) 1 20:42.3 121.5 19
97 Ayumi Lambert 12 Durango (CO) 7 20:43.3 121.4 96 73
98 Keeley Miller 9 Davis (UT) (UT) 3 20:43.3 121.4 97 74
99 Keira Erickson 12 Lone Peak (UT) 3 20:44.2 121.3 98 20
100 Kiely Munson 12 Spring Creek (NV) 1 20:44.3 121.3 99 21
101 Audrey Lemon 10 Viewmont (UT) 3 20:45.2 121.2 100 75
102 Paige Scates 11 Idaho Falls (ID) 5 20:46.5 121.1 101 22
103 Lilly Griffith 10 Northridge (IN) 3 20:46.6 121.1 102 76
104 Alexis Weiers 12 Morgan (WA) 1 20:46.6 121.1 103 1
105 Jadyn Parker 11 Westlake (CA) 1 20:48.2 120.9 77
106 Corin Leffler 9 Preston (ID) 8 20:48.6 120.9 3
107 Maggie Crosby 9 Snow Canyon (UT) 1 20:49.5 120.8 104 23
108 Nicole Wayment 10 Bonneville (Ogden) (UT) 2 20:52.7 120.5 105 2
109 Aspen Kenworthy 11 Snow Canyon (UT) 2 20:52.8 120.5 106 24
110 Bethany Moore 9 Preston (ID) 9 20:53.5 120.4 4
111 Oliisia Mecham 9 Timpview (UT) 4 20:54.8 120.3 107 78
112 Edith Neslen 11 Hillcrest (ID) 1 20:55.7 120.2 108 3
113 Akaeylia Schwendiman 9 Mountain Ridge (AZ) 8 20:56.6 120.1 5
114 Eliza Sandberg 12 Skyridge (WA) 4 20:56.8 120.1 109 79
115 Aubrey Horrocks 12 Evanston Senior (UT) 3 20:57.0 120.1 110 80
116 Addilyn Orndorff 11 Springville (UT) 8 20:57.0 120.1 81
117 Taylor Miller 12 Farmington (MO) 6 20:57.2 120.1 111 82
118 Emily Ormsby 12 Layton (UT) 3 20:57.3 120.1 112 25
119 Andenelle Marker 10 Weber (UT) 8 20:57.4 120.0 83
120 Adri Bird 12 Springville (UT) 9 20:59.0 119.9 84
121 River White 10 Union (CA) 2 20:59.3 119.9 113 26
122 Anna Ames 11 Hillcrest (ID) 2 21:00.6 119.8 114 4
123 Olivia Lay 10 Desert Hills (UT) 2 21:00.8 119.7 115 85
124 Eliza Day 10 Evanston Senior (UT) 4 21:03.2 119.5 116 86
125 Holly Taylor 12 Skyridge (WA) 5 21:04.9 119.3 117 87
126 Sophie Riding 12 Spanish Fork (UT) 2 21:06.3 119.2 118 27
127 Brooke Timothy 10 Layton (UT) 4 21:06.4 119.2 119 28
128 Keira Stacey 11 Viewmont (UT) 4 21:07.0 119.1 120 88
129 Talia Skinner 11 Desert Hills (UT) 3 21:07.3 119.1 121 89
130 Claire Frodsham 10 Davis (UT) (UT) 4 21:09.8 118.9 122 90
131 Audrey Palmer 9 Bonneville (Ogden) (UT) 3 21:11.3 118.7 123 6
132 Ariauna James 12 Westlake (CA) 5 21:11.8 118.7 124 91
133 Katie Ormsby 10 Layton (UT) 5 21:12.3 118.6 125 29
134 Nadia Templeman 10 Springville (UT) 10 21:13.3 118.5 3
135 Hailey Raymond 11 Snake River (ID) 1 21:14.3 118.5 126 30
136 Kate LeBaron 12 Idaho Falls (ID) 6 21:16.3 118.3 127 31
137 Bailey Tolman 11 Weber (UT) 9 21:16.8 118.2 5
138 Cambree Benson 12 Mountain Ridge (AZ) 9 21:17.4 118.2 2
139 Clara Madsen 9 Skyridge (WA) 6 21:17.4 118.2 128 7
140 Libbie Cline 11 Riverton (UT) 5 21:19.6 118.0 129 32
141 Kennedy Gardner 11 Lone Peak (UT) 4 21:20.0 117.9 130 33
142 Aubree Camp 10 Westlake (CA) 6 21:20.4 117.9 131 92
143 Abigail Laidlaw 12 Snow Canyon (UT) 3 21:23.3 117.6 132 34
144 Chloe Cornia 10 Riverton (UT) 6 21:23.3 117.6 133 35
145 Elizabeth Sandberg 11 Timpview (UT) 5 21:25.3 117.4 134 93
146 Kaylee Karlsven 10 Bingham (UT) 4 21:26.7 117.3 135 94
147 Tatum Kinsey 11 Northridge (IN) 4 21:27.5 117.2 136 95
148 Callie Peterson 10 Viewmont (UT) 5 21:27.8 117.2 137 96
149 Sarah Scott 10 Viewmont (UT) 6 21:27.8 117.2 138 97
150 Ashlyn Turner 11 Viewmont (UT) 7 21:28.2 117.2 139 98
151 Emmalee Williams 9 Pine View (UT) 6 21:29.9 117.0 140 99
152 Maya Parker 9 Westlake (CA) 7 21:30.2 117.0 141 8
153 Tessa Densley 12 Bingham (UT) 5 21:30.7 117.0 142 100
154 Reese Hatch 11 Elko (NV) 1 21:30.8 116.9 143 36
155 Renee Bentley 10 Northridge (IN) 5 21:31.6 116.9 144 101
156 Emily Despain 11 Blackfoot (ID) 1 21:32.5 116.8 145 6
157 Ainslee Miller 10 Snake River (ID) 2 21:33.0 116.8 146 37
158 Rosalind Woolley 10 Desert Hills (UT) 4 21:34.0 116.7 147 102
159 Amelia Woolley 12 Desert Hills (UT) 5 21:34.4 116.6 148 103
160 Ashley Favero 10 Lone Peak (UT) 5 21:34.5 116.6 149 38
161 Brianna Udy 11 Pine View (UT) 7 21:34.9 116.6 150 7
162 Marjie Richards 11 Bountiful (UT) 2 21:35.2 116.5 151 39
163 Aubrey DeMordaunt 11 Farmington (MO) 7 21:35.7 116.5 152 8
164 Jade Rugh 10 Timpview (UT) 6 21:35.8 116.5 153 104
165 Brianna Perchetti 11 Spring Creek (NV) 2 21:38.3 116.3 154 40
166 Eliza Gehring 11 Viewmont (UT) 8 21:39.0 116.2 9
167 Klaira Barrow 9 Blackfoot (ID) 2 21:39.9 116.1 155 9
168 Clara Compton 12 Morgan (WA) 2 21:41.3 116.0 156 3
169 Margaret Lund 11 Riverton (UT) 7 21:43.0 115.8 157 41
170 Chelsea Mower 11 Salem Hills (UT) 2 21:43.0 115.8 158 42
171 Tess Nelson 9 Preston (ID) 10 21:43.3 115.8 10
172 Claire Wallgren 9 Skyridge (WA) 7 21:44.2 115.7 159 11
173 Elle Williams 11 Pine View (UT) 8 21:45.2 115.7 105
174 Aileen McManus 9 Durango (CO) 8 21:45.6 115.6 12
175 Grace Gunn 12 Farmington (MO) 8 21:46.5 115.5 4
176 Helen Glaze 10 Davis (UT) (UT) 5 21:50.2 115.2 160 106
177 Audrey Schettler 11 Lone Peak (UT) 6 21:50.6 115.2 161 43
178 Ashlyn Beebe 10 Mountain Ridge (AZ) 10 21:51.3 115.1 4
179 Laurel Peterson 9 Timpview (UT) 7 21:52.3 115.0 162 107
180 Macey Reed 12 Spring Creek (NV) 3 21:53.4 114.9 163 44
181 Nikki Phipps 11 Mountain Ridge (AZ) 11 21:53.8 114.9 10
182 Sharon Gunn 12 Morgan (WA) 3 21:54.0 114.9 164 5
183 Anna Moffat 10 Westlake (CA) 8 21:54.3 114.8 108
184 Siena Francom 9 Springville (UT) 11 21:54.7 114.8 13
185 Kelsie Ballard 9 Mountain Ridge (AZ) 12 21:55.5 114.8 14
186 Lillian Brown 12 Fremont (MI) 4 21:55.6 114.7 165 109
187 Ella Nielsen 11 Bingham (UT) 6 21:56.3 114.7 166 110
188 Lilianna Haynes 10 Elko (NV) 2 21:58.3 114.5 167 45
189 Maren Johnson 11 Bonneville (Ogden) (UT) 4 21:58.5 114.5 168 11
190 Kaitlyn Strong 11 Lone Peak (UT) 7 22:00.6 114.3 169 12
191 Emma Greenwood 11 Skyridge (WA) 8 22:01.3 114.2 13
192 Eliza Larsen 10 Snow Canyon (UT) 4 22:01.5 114.2 170 46
193 Natalie May 11 Farmington (MO) 9 22:01.6 114.2 14
194 Allyson Osborn 9 Springville (UT) 12 22:02.0 114.2 15
195 Kara Olsen 11 Desert Hills (UT) 6 22:02.4 114.2 171 111
196 Lucy Faux 11 Idaho Falls (ID) 7 22:03.7 114.0 172 15
197 Sarah Whitt 11 Lone Peak (UT) 8 22:03.7 114.0 16
198 Sophia Hooper 11 Desert Hills (UT) 7 22:04.0 114.0 173 112
199 Carlie Livingston 12 Idaho Falls (ID) 8 22:05.6 113.9 6
200 Macie Wakley 10 Skyridge (WA) 9 22:05.7 113.9 5
201 Brooke Greenwood 12 Lone Peak (UT) 9 22:06.0 113.8 7
202 Carly Nielsen 12 Elko (NV) 3 22:07.3 113.7 174 47
203 Allison Montgomery 10 Davis (UT) (UT) 6 22:08.8 113.6 175 113
204 Brecklyn Bugnet 10 Fremont (MI) 5 22:09.4 113.5 176 114
205 Lily O'Neal 10 Cedar Valley (UT) 1 22:10.4 113.5 48
206 Lucy Huller 12 Layton (UT) 6 22:10.6 113.5 177 49
207 Christiana Clifford 9 Lone Peak (UT) 10 22:10.7 113.4 16
208 Anya Salmon 10 Timpview (UT) 8 22:11.2 113.4 6
209 Abby Taylor 11 Fremont (MI) 6 22:11.2 113.4 178 115
210 Katie Hutchings 11 Timpview (UT) 9 22:11.3 113.4 17
211 Brecken Heath 11 Pine View (UT) 9 22:12.3 113.3 18
212 Ryn Nilsson 12 Farmington (MO) 10 22:12.5 113.3 8
213 Olive Brimacombe 10 Westlake (CA) 9 22:12.8 113.3 7
214 Samantha Heaton 9 Cedar City (UT) 7 22:13.0 113.2 179 17
215 Sixtine La Merle 10 Durango (CO) 9 22:13.2 113.2 8
216 Lila Knight 10 Summit Academy (UT) 2 22:13.7 113.2 180 9
217 Emma Albrechtsen 12 Farmington (MO) 11 22:14.6 113.1 9
218 Jane Ringger 9 Timpview (UT) 10 22:15.2 113.1 18
219 Natalie Brown 12 West Jordan (UT) 1 22:15.6 113.0 10
220 Grace Christensen 10 Westlake (CA) 10 22:16.1 113.0 10
221 Rylie Edlefsen 11 Snake River (ID) 3 22:18.4 112.8 181 50
222 Mikelle Kesler 9 Snake River (ID) 4 22:19.2 112.7 182 51
223 Mary Shields 11 Lone Peak (UT) 11 22:19.6 112.7 52
224 Amelia Ericksen 12 Lone Peak (UT) 12 22:20.9 112.6 11
225 Ava Talbot 10 Skyridge (WA) 10 22:22.3 112.5 11
226 Brea Butler 10 Mountain Ridge (AZ) 13 22:22.9 112.4 12
227 Ashley Forrest 12 Durango (CO) 10 22:23.9 112.3 12
228 Jocelyn Barney 11 Desert Hills (UT) 8 22:24.6 112.3 19
229 Whitney Christiansen 12 Blackfoot (ID) 3 22:24.9 112.2 183 13
230 Eliza Bodine 10 Skyridge (WA) 11 22:25.2 112.2 13
231 Maelynn Fidler 12 Weber (UT) 10 22:26.3 112.1 20
232 Brooklynn Black 12 Farmington (MO) 12 22:26.9 112.1 14
233 Liesl Botts 10 Evanston Senior (UT) 1 22:28.0 112.0 184 14
234 Sabrina Funk 11 Farmington (MO) 13 22:29.2 111.9 21
235 Abigail Bennett 10 Weber (UT) 11 22:29.2 111.9 22
236 Katelyn Price 12 Skyridge (WA) 12 22:29.4 111.9 15
237 Ella Andrle 11 Northridge (IN) 6 22:30.5 111.8 185 116
238 Addison Bowcutt 9 Bingham (UT) 7 22:32.0 111.7 186 19
239 Brekyn Gossling 10 Morgan (WA) 4 22:32.0 111.7 187 15
240 Cassie Olsen - Desert Hills (UT) 9 22:32.4 111.6 20
241 Kylee Morgan 12 Snake River (ID) 5 22:33.3 111.5 188 53
242 Lauren Storm 11 Bingham (UT) 8 22:34.2 111.5 23
243 Brynlee Oyler 10 Davis (UT) (UT) 7 22:34.8 111.4 189 16
244 Audrey Griffin 11 Farmington (MO) 14 22:35.2 111.4 24
245 Rowen McLaughlin 9 Davis (UT) (UT) 8 22:35.7 111.3 21
246 Maiya Creager 11 Weber (UT) 12 22:36.3 111.3 25
247 Arowyn Potter 11 Elko (NV) 4 22:36.3 111.3 190 54
248 Elizabeth Mott 10 Lone Peak (UT) 13 22:36.7 111.3 17
249 Aubrie Dennert 9 Idaho Falls (ID) 9 22:36.8 111.3 22
250 Emily Balls 11 Salem Hills (UT) 3 22:37.3 111.2 191 55
251 Lily Thorne 10 Bountiful (UT) 3 22:37.4 111.2 192 56
252 Annalise Ririe 11 Weber (UT) 13 22:38.8 111.1 26
253 Eliza Swain 10 Davis (UT) (UT) 9 22:38.9 111.1 18
254 Eliza Rains 10 Bingham (UT) 9 22:39.4 111.0 117
255 Peterson Brinley 9 Weber (UT) 14 22:41.3 110.9 27
256 Adelaide Marker 12 Weber (UT) 15 22:41.5 110.9 28
257 Sophia Johnston 9 Lone Peak (UT) 14 22:41.9 110.8 23
258 Brianne Young 11 Fremont (MI) 7 22:42.4 110.8 193 118
259 Noelle Hanson 11 Snow Canyon (UT) 5 22:42.6 110.8 194 57
260 Alli Kirkham 10 Mountain Ridge (AZ) 14 22:42.9 110.8 19
261 Abigail Roundy 12 Cedar City (UT) 8 22:43.6 110.7 16
262 Aubrey Fletcher 9 Layton (UT) 7 22:43.8 110.7 195 24
263 Alyssa Crowther 12 Preston (ID) 11 22:45.4 110.5 17
264 Kate Lunt 12 Provo (UT) 2 22:46.3 110.5 196 58
265 Jocee Blakey 11 Springville (UT) 13 22:46.6 110.5 29
266 Kennedy Hansen 9 Fremont (MI) 8 22:47.3 110.4 59
267 Ella Packer 9 Lone Peak (UT) 15 22:47.4 110.4 25
268 Annie Christensen 9 Fremont (MI) 9 22:48.4 110.3 60
269 Emma Verespey 11 Snow Canyon (UT) 6 22:52.3 110.0 197 30
270 Brightyn Shoell 11 Westlake (CA) 11 22:53.3 109.9 31
271 Eden Bench 11 Idaho Falls (ID) 10 22:54.5 109.8 32
272 Jocelyn Baker 12 Westlake (CA) 12 22:54.6 109.8 18
273 Isabel (Izzy) Illian 9 Cedar City (UT) 9 22:55.5 109.7 26
274 Miriam Smith 11 Idaho Falls (ID) 11 22:55.6 109.7 33
275 Lexie Christiansen 12 Salem Hills (UT) 4 22:56.8 109.6 198 61
276 Piper Thomas 12 Lone Peak (UT) 16 22:57.9 109.5 19
277 Keira Sweet 12 Hillcrest (ID) 3 22:57.9 109.5 199 20
278 Marissa Anderson 12 Springville (UT) 14 22:58.3 109.5 21
279 Blythe Anderson 11 Cedar City (UT) 10 22:58.6 109.5 34
280 Tiana Green 11 Cedar City (UT) 11 22:59.3 109.4 35
281 Lyndsey Parke 10 Viewmont (UT) 9 22:59.5 109.4 20
282 Marissa Child 12 Timpview (UT) 11 22:59.9 109.4 22
283 Brinley Price 11 Idaho Falls (ID) 12 23:02.5 109.2 36
284 Julia Hansen 11 Lone Peak (UT) 17 23:03.8 109.1 37
285 Sarah Miller 9 Farmington (MO) 15 23:04.2 109.0 27
286 Abigail Lee 11 Viewmont (UT) 10 23:04.3 109.0 38
287 Talia Conrad 11 Evanston Senior (UT) 5 23:05.0 109.0 200 119
288 Sophia Stryker 10 Davis (UT) (UT) 10 23:06.0 108.9 21
289 Lily Mason 11 Spanish Fork (UT) 3 23:06.2 108.9 201 62
290 Anna Gottfredson 10 Lone Peak (UT) 18 23:07.2 108.8 22
291 Brianna Vine 10 Lone Peak (UT) 19 23:07.6 108.8 23
292 Lydia Crumley 10 Blackfoot (ID) 4 23:08.0 108.8 202 24
293 Cristie Bastidas 11 West Jordan (UT) 2 23:09.3 108.7 39
294 Sienna Bybee 10 Lone Peak (UT) 20 23:10.2 108.6 25
295 Cadence Anderson 12 Timpview (UT) 12 23:10.2 108.6 23
296 Lillie Haarala 10 Northridge (IN) 7 23:12.2 108.4 203 26
297 Corinne Young 9 Snow Canyon (UT) 7 23:13.2 108.3 204 28
298 Brielle Smith 9 Snow Canyon (UT) 8 23:13.6 108.3 63
299 Maddy Larsen 11 Blackfoot (ID) 5 23:13.8 108.3 205 40
300 Mattie Richens 10 Union (CA) 3 23:14.2 108.3 206 64
301 Abigail Hammond 11 Davis (UT) (UT) 11 23:14.2 108.3 41
302 Kate Richards 11 Davis (UT) (UT) 12 23:14.3 108.3 42
303 Cecelia Walton 9 Viewmont (UT) 11 23:14.7 108.2 29
304 Katelyn Athay 9 Skyridge (WA) 13 23:15.9 108.1 30
305 Jessica Holland 11 Hurricane (WV) 1 23:17.0 108.0 207 65
306 Allie Eliason 11 Viewmont (UT) 12 23:17.8 108.0 43
307 Sarah Schwartz 10 Spanish Fork (UT) 4 23:18.3 108.0 208 66
308 Samantha Erickson 9 Westlake (CA) 13 23:18.4 108.0 31
309 Carly Christensen 12 Fremont (MI) 10 23:18.4 108.0 67
310 Lorelai Peterson 9 Northridge (IN) 8 23:20.5 107.8 32
311 Hanna Howard 10 Cedar City (UT) 12 23:21.6 107.7 27
312 Clara Johnston 9 Lone Peak (UT) 21 23:22.0 107.7 33
313 Kaitlyn Larsen 12 Spanish Fork (UT) 5 23:22.7 107.6 209 68
314 Gabriella May 9 Farmington (MO) 16 23:23.4 107.6 34
315 Megan Peterson 10 Idaho Falls (ID) 13 23:25.9 107.4 28
316 Sage Sunderlage 11 Lone Peak (UT) 22 23:26.0 107.4 44
317 Olivia Richards 11 West Jordan (UT) 3 23:26.0 107.4 45
318 Tandi Ratliff 11 Elko (NV) 5 23:27.3 107.3 210 69
319 Brooke Jensen 10 Timpview (UT) 13 23:27.9 107.2 29
320 Chloe Garvin 9 Mountain Ridge (AZ) 15 23:28.5 107.2 35
321 Aloryn Howell 11 Spring Creek (NV) 4 23:30.6 107.0 211 70
322 Ashley Boone 11 Skyridge (WA) 14 23:31.3 107.0 46
323 Paloma Larsen 9 Snow Canyon (UT) 9 23:31.6 106.9 71
324 Maylin Lundell 9 Fremont (MI) 11 23:31.6 106.9 72
325 Bella Dover 11 Evanston Senior (UT) 6 23:31.8 106.9 212 47
326 Jaci Larsen 10 Lone Peak (UT) 23 23:32.0 106.9 30
327 Callie Parker 10 Spanish Fork (UT) 6 23:33.2 106.8 213 73
328 Rasmussen Keelee 9 Weber (UT) 16 23:33.3 106.8 48
329 Emily Tomkinson 9 Lone Peak (UT) 24 23:33.8 106.8 36
330 Savannah Durham 10 Westlake (CA) 14 23:34.0 106.8 31
331 Lauren Yorgason 10 Timpview (UT) 14 23:35.2 106.7 32
332 Brynlee Whitworth 9 Lone Peak (UT) 25 23:36.0 106.6 37
333 Maryanne France 10 Lyman (FL) 2 23:36.3 106.6 214 33
334 Lexi Zavoico 9 Cedar City (UT) 13 23:37.3 106.5 38
335 Sophie Ragsdale 12 Durango (CO) 11 23:37.8 106.5 24
336 Katelyn Green 10 Cedar City (UT) 14 23:39.0 106.4 34
337 Mara Welch 11 Timpview (UT) 15 23:39.4 106.3 49
338 Amelia Condie 10 Idaho Falls (ID) 14 23:39.7 106.3 35
339 Liliana Guzman 12 Bountiful (UT) 4 23:39.8 106.3 215 74
340 Kennley Winn 9 Mountain View (CA) 2 23:39.8 106.3 75
341 Katelin Bingham 11 Spanish Fork (UT) 7 23:40.0 106.3 216 76
342 Lindsey Skidmore 11 Lone Peak (UT) 26 23:40.3 106.3 50
343 Lydia Sutton 11 Salem Hills (UT) 5 23:40.8 106.2 217 77
344 Madelyn Shumate 9 Cedar City (UT) 15 23:41.2 106.2 39
345 Mallorie Larsen 11 Westlake (CA) 15 23:42.4 106.1 51
346 Laynee Bringhurst 12 Hurricane (WV) 2 23:42.8 106.1 218 78
347 Ira Groberg - Salem Hills (UT) 6 23:43.2 106.1 219 79
348 Abby Bowman 12 Durango (CO) 12 23:43.3 106.1 25
349 Abbey Klein 11 Farmington (MO) 17 23:43.5 106.0 52
350 Marley Renelle 9 Evanston Senior (UT) 7 23:44.2 106.0 220 40
351 Courtney Wall 11 Farmington (MO) 18 23:45.8 105.9 53
352 Ryen Bailey 12 Weber (UT) 17 23:46.7 105.8 54
353 Ashley Johns 11 Springville (UT) 15 23:51.0 105.5 55
354 Reagan Wright 11 Layton (UT) 8 23:53.6 105.3 80
355 Megan Black 10 Blackfoot (ID) 6 23:54.2 105.2 221 36
356 Whitney Hoopes 12 Farmington (MO) 19 23:54.4 105.2 26
357 Sara Lyman 11 Snow Canyon (UT) 10 23:55.3 105.2 56
358 Emerson Williams 9 Snow Canyon (UT) 11 23:57.6 105.0 41
359 Naomi Wells 12 Union (CA) 4 23:57.6 105.0 222 81
360 Tippets Cora 9 Weber (UT) 18 23:58.5 104.9 57
361 Ethne Lemery 9 Union (CA) 5 23:59.3 104.9 223 82
362 Katelyn Mangum 10 Provo (UT) 3 24:02.8 104.6 224 83
363 Abby Wright 9 Cedar City (UT) 16 24:03.2 104.6 42
364 Audrey Graf 9 Spring Creek (NV) 5 24:03.3 104.6 225 43
365 Emma Neumann 9 Snow Canyon (UT) 12 24:04.3 104.5 44
366 Hannah Helms 12 Durango (CO) 13 24:08.5 104.2 27
367 Margaret Jeppesen 10 Viewmont (UT) 13 24:08.7 104.2 37
368 Ava Atkin 11 Snow Canyon (UT) 13 24:09.2 104.2 58
369 Lydia Wall 10 Salem Hills (UT) 7 24:10.0 104.1 226 84
370 Cambelle Hardcastle 9 Fremont (MI) 12 24:10.8 104.0 85
371 Taya Sanders 9 Bountiful (UT) 5 24:11.2 104.0 227 86
372 Sophia Kitterman 9 Bingham (UT) 10 24:11.9 104.0 45
373 Abby Torgerson 11 Lyman (FL) 3 24:13.6 103.8 228 59
374 Georgia Atkin 12 Snow Canyon (UT) 14 24:13.8 103.8 28
375 Aeris Hansen 10 Mountain Ridge (AZ) 16 24:14.9 103.8 38
376 Elvia Lozano 11 Elko (NV) 6 24:16.3 103.7 229 87
377 Mara Spigarelli 11 Bingham (UT) 11 24:17.7 103.5 60
378 Juliet Stanley 10 Davis (UT) (UT) 13 24:18.2 103.5 39
379 Amberlyn Stuart 12 Preston (ID) 12 24:18.8 103.5 29
380 Emmalee Prince 12 Bonneville (Ogden) (UT) 5 24:19.4 103.4 230 30
381 Lindsay Birt 11 Morgan (WA) 5 24:19.4 103.4 231 61
382 Malina Bell 12 Davis (UT) (UT) 14 24:21.0 103.3 31
383 Hailey Bird 10 Farmington (MO) 20 24:22.8 103.2 40
384 Laney Holt 11 Pine View (UT) 10 24:24.4 103.1 62
385 Alianna Sanchez 11 Pine View (UT) 11 24:24.5 103.1 63
386 Jennie Anderson 11 Bountiful (UT) 6 24:25.8 103.0 232 88
387 Marker Sadie 9 Weber (UT) 19 24:26.5 102.9 64
388 Arianna Thornton 12 Hurricane (WV) 3 24:28.2 102.8 233 89
389 Rebekah Calvin 9 Farmington (MO) 21 24:28.6 102.8 46
390 Hannah Martin 12 Hurricane (WV) 4 24:28.8 102.8 234 90
391 Annie Methany 9 Lone Peak (UT) 27 24:30.8 102.6 47
392 Natalie Agren 9 Northridge (IN) 9 24:31.0 102.6 48
393 Linden Valgardsen 10 Salem Hills (UT) 8 24:32.2 102.5 41
394 Livia Solomon 11 Lone Peak (UT) 28 24:34.6 102.4 65
395 Rachel Cook 12 Idaho Falls (ID) 15 24:34.8 102.3 32
396 Bella Gillette 10 Snow Canyon (UT) 15 24:34.8 102.3 42
397 Natalie Wright 9 Davis (UT) (UT) 15 24:34.9 102.3 49
398 Kate Farnes 9 Farmington (MO) 22 24:35.4 102.3 50
399 Eva Van Orman 10 Viewmont (UT) 14 24:35.9 102.3 43
400 Nora Hermanson 9 Hillcrest (ID) 4 24:36.0 102.3 235 51
401 Ava Carter 9 Skyridge (WA) 15 24:36.8 102.2 52
402 Eleonore Gilliot 11 Hillcrest (ID) 5 24:38.3 102.1 236 66
403 Lexi Toronto 10 Viewmont (UT) 15 24:38.4 102.1 44
404 Rachel Maynes 11 Idaho Falls (ID) 16 24:39.4 102.0 67
405 Abby Hysell 11 Lyman (FL) 4 24:41.5 101.9 237 68
406 Savannah Winfield 12 Evanston Senior (UT) 8 24:42.8 101.8 33
407 Olga Andrade 11 Blackfoot (ID) 7 24:42.8 101.8 238 69
408 Tiffany Hollingworth 10 Timpview (UT) 16 24:43.5 101.8 45
409 Chloe Chen 11 Bonneville (Ogden) (UT) 6 24:44.0 101.7 239 70
410 Slater Jones 11 Fremont (MI) 13 24:44.7 101.7 91
411 Lauren Haughton 9 Cedar Valley (UT) 2 24:45.7 101.6 53
412 Caroline Williams 10 Lyman (FL) 5 24:49.0 101.4 240 46
413 Avery Lehenbauer 9 Snow Canyon (UT) 16 24:49.8 101.3 54
414 Anna Conley 12 Lone Peak (UT) 29 24:49.9 101.3 34
415 Abigail Thompson 9 Cedar City (UT) 17 24:50.8 101.3 55
416 Kirsti Haroldsen 10 Snake River (ID) 6 24:54.6 101.0 241 92
417 Madisyn Lott 12 Spanish Fork (UT) 8 24:54.8 101.0 35
418 Zarah Wiet 11 Mountain Ridge (AZ) 17 24:55.4 100.9 71
419 Yleana Serrata 12 Snow Canyon (UT) 17 24:56.2 100.9 36
420 Addie Lehnhof 11 Lone Peak (UT) 30 24:56.4 100.9 72
421 Claire Daniels 9 Westlake (CA) 16 24:58.4 100.7 56
422 Claire Armond 12 Timpview (UT) 17 24:59.3 100.7 37
423 Gabriell Bradley 10 Spring Creek (NV) 6 25:00.5 100.6 242 93
424 Halle Herget 12 Layton (UT) 9 25:01.5 100.5 94
425 Leilani Rodriguez 9 Northridge (IN) 10 25:02.8 100.5 57
426 Kathleen Wheeler 10 Hurricane (WV) 5 25:03.3 100.4 243 95
427 Brandi Manhire 12 Spring Creek (NV) 7 25:05.0 100.3 244 96
428 Katrina Frazier 11 Lone Peak (UT) 31 25:06.9 100.2 73
429 Alyssa LeBaron 12 Hurricane (WV) 6 25:07.8 100.1 245 97
430 Ashtyn Wells 11 Lyman (FL) 6 25:09.4 100.0 246 74
431 Brecken Cox 9 Cedar City (UT) 18 25:09.6 100.0 58
432 Anna Larsen 12 Davis (UT) (UT) 16 25:09.6 100.0 38
433 Oakley Arave 10 Blackfoot (ID) 8 25:10.4 99.9 47
434 Zoey Dahl 9 Spring Creek (NV) 8 25:10.7 99.9 98
435 Hailey Syme 11 Spring Creek (NV) 9 25:12.2 99.8 75
436 Hadley Hansen 9 Fremont (MI) 14 25:12.9 99.8 99
437 Andrea Buttermore 10 Cedar Valley (UT) 3 25:13.3 99.8 100
438 Alivia Lee 10 Snow Canyon (UT) 18 25:17.7 99.5 48
439 Sharon Christensen 9 Cedar City (UT) 19 25:18.6 99.4 59
440 Taya Thompson 10 Salem Hills (UT) 9 25:18.7 99.4 49
441 Marlee Dall 12 Fremont (MI) 15 25:22.2 99.2 101
442 Lily Neuenschwander 11 Farmington (MO) 23 25:23.8 99.1 76
443 Hadlee Toyn 11 Fremont (MI) 16 25:26.6 98.9 102
444 Kayleen Richardson 10 Tintic (UT) 1 25:28.5 98.8 247 50
445 Addysen Anderson 12 Westlake (CA) 17 25:28.9 98.7 39
446 Meg Barker 12 Timpview (UT) 18 25:31.4 98.6 40
447 Lindsey Neumann 12 Bingham (UT) 12 25:32.8 98.5 41
448 Ivie Froerer 9 Weber (UT) 20 25:34.9 98.3 77
449 Emma Cunningham 12 Bingham (UT) 13 25:35.8 98.3 42
450 Lindi Hokanson 9 Snake River (ID) 7 25:36.1 98.3 248 60
451 Brielle Brown 9 Bonneville (Ogden) (UT) 7 25:37.2 98.2 249 61
452 Ciera Timothy 11 Lone Peak (UT) 32 25:37.6 98.2 78
453 Jaci Jacobsmeyer 11 Farmington (MO) 24 25:38.2 98.1 79
454 Lacey Treese 10 Blackfoot (ID) 9 25:38.2 98.1 51
455 Austria Salmon 9 Timpview (UT) 19 25:38.5 98.1 62
456 Tessa Smith 10 Lone Peak (UT) 33 25:38.9 98.1 52
457 Emily Heaton 10 Hurricane (WV) 7 25:39.9 98.0 250 53
458 Hailey Pratt 12 Snow Canyon (UT) 19 25:40.4 98.0 43
459 Kimberly Hall 10 Bingham (UT) 14 25:40.9 98.0 54
460 Anna Nydegger 10 Layton (UT) 10 25:42.6 97.9 55
461 Lucy Priddis 9 Timpview (UT) 20 25:44.0 97.8 63
462 Brynn Southam 11 Timpview (UT) 21 25:44.8 97.7 80
463 Cecily Barlow 11 Bingham (UT) 15 25:44.8 97.7 81
464 Angelina (Lina) Weiers 9 Morgan (WA) 6 25:45.0 97.7 251 64
465 Katelyn Hart 9 Mountain Ridge (AZ) 18 25:45.4 97.7 65
466 Eowynn Marston 10 Snake River (ID) 8 25:45.6 97.7 56
467 Annie Millerberg 11 Bingham (UT) 16 25:48.2 97.5 82
468 Adalee Strauss 11 Spanish Fork (UT) 9 25:49.3 97.4 83
469 Roxie Nelson 10 Provo (UT) 4 25:50.8 97.3 252 103
470 MaKenna Terry 11 Morgan (WA) 7 25:52.8 97.2 253 84
471 Brielle Von Hoene 10 Spanish Fork (UT) 10 25:53.5 97.2 57
472 Lexie Ward 11 Layton (UT) 11 25:54.2 97.1 85
473 Aspen Shoell 9 Westlake (CA) 18 25:57.3 96.9 66
474 Sarah Dastrup 9 Davis (UT) (UT) 17 25:59.0 96.8 67
475 Ella McQuay 9 Bountiful (UT) 7 26:01.3 96.7 254 104
476 Isabel Lorea 10 Layton (UT) 12 26:06.2 96.4 58
477 Aubrey Spindle 10 Westlake (CA) 19 26:06.5 96.4 59
478 Ciceily Kenworthy 10 Cedar Valley (UT) 4 26:07.7 96.3 105
479 Anna Hirst 9 Davis (UT) (UT) 18 26:13.3 96.0 68
480 Paitlee Dorius 12 Morgan (WA) 8 26:13.8 95.9 44
481 Claire Baker 10 Blackfoot (ID) 10 26:14.6 95.9 60
482 Hadley Denney 9 Durango (CO) 14 26:14.7 95.9 69
483 Julia Palmer 10 Bonneville (Ogden) (UT) 8 26:14.8 95.8 86
484 Eliza McMillen 11 Skyridge (WA) 16 26:15.0 95.8 87
485 BreeAnn Losee 10 Westlake (CA) 20 26:16.5 95.8 61
486 Haven Harris 11 Salem Hills (UT) 10 26:22.6 95.4 88
487 Haylee Brashear 11 Union (CA) 6 26:25.3 95.2 255 89
488 Paris Griner 12 Layton (UT) 13 26:27.8 95.1 45
489 Ava Thompson 11 Salem Hills (UT) 11 26:29.5 95.0 90
490 Lucy Hiatt 9 Skyridge (WA) 17 26:30.4 94.9 70
491 Chantal Cruz 12 Elko (NV) 7 26:30.4 94.9 256 46
492 Leah Page 10 Weber (UT) 21 26:31.8 94.8 91
493 Ainsley Fullmer 10 Idaho Falls (ID) 17 26:32.6 94.8 62
494 Riley Eklund 9 Weber (UT) 22 26:33.4 94.7 92
495 Harlee David 12 Snake River (ID) 9 26:34.2 94.7 106
496 Mabel Brown 9 Farmington (MO) 25 26:34.6 94.7 71
497 Rinah Garaway 12 Northridge (IN) 11 26:35.3 94.6 47
498 Lydia Washburn 10 Summit Academy (UT) 3 26:37.0 94.5 257 63
499 Samara Bilkman 10 Timpview (UT) 22 26:38.0 94.5 64
500 Amelia Squire 10 Layton (UT) 14 26:38.4 94.4 65
501 Jordan Rollins 10 Layton (UT) 15 26:39.0 94.4 66
502 Maren Jorgensen 12 Hillcrest (ID) 6 26:39.6 94.4 258 48
503 Addie Williams 11 Morgan (WA) 9 26:40.8 94.3 93
504 Cali Aldridge 11 Bingham (UT) 17 26:42.0 94.2 94
505 Hope Stokes 9 Snake River (ID) 10 26:44.3 94.1 72
506 Gracie Lewis 10 Mountain Ridge (AZ) 19 26:45.3 94.0 67
507 Madison Bracken 12 Mountain Ridge (AZ) 20 26:46.6 94.0 49
508 Maddie Peterson 10 Mountain Ridge (AZ) 21 26:47.0 93.9 68
509 Addalice Flores 11 Spanish Fork (UT) 11 26:48.9 93.8 95
510 Maddy Despain 10 Blackfoot (ID) 11 26:49.3 93.8 69
511 Oaklee Bond 11 Davis (UT) (UT) 19 26:50.3 93.7 96
512 Anneka Haro 12 Elko (NV) 8 26:55.5 93.4 107
513 Allison Myint 10 Blackfoot (ID) 12 26:55.9 93.4 70
514 Elizabeth Muhlestein 10 Skyridge (WA) 18 27:00.3 93.2 71
515 Natalie Parker 12 Salem Hills (UT) 12 27:00.8 93.1 50
516 Hailey Schmidt 9 Mountain Ridge (AZ) 22 27:03.4 93.0 73
517 Kamryn Muirbrook 11 Farmington (MO) 26 27:03.5 93.0 97
518 Marissa Richardson 9 Tintic (UT) 2 27:04.4 92.9 259 74
519 Lily Tew 11 Bountiful (UT) 8 27:08.3 92.7 98
520 Sage Van Ausdal 11 Spanish Fork (UT) 12 27:08.3 92.7 99
521 Afton Child 12 Timpview (UT) 23 27:10.8 92.6 51
522 Nico Bragg 12 Westlake (CA) 21 27:12.6 92.5 52
523 Addisen Hales 9 Farmington (MO) 27 27:18.2 92.1 75
524 Madelyn Hansen 10 Skyridge (WA) 19 27:18.3 92.1 72
525 Emily Perkins 12 Union (CA) 7 27:18.9 92.1 260 100
526 Regan Georgeson 11 Summit Academy (UT) 4 27:23.0 91.9 261 101
527 Olivia Graf 9 Pine View (UT) 12 27:24.8 91.8 76
528 Sage Howell 10 Blackfoot (ID) 13 27:25.2 91.8 73
529 Taycee Anderson 9 Springville (UT) 16 27:27.5 91.6 77
530 Liz Baxter 12 Bonneville (Ogden) (UT) 9 27:27.7 91.6 53
531 Eden Flora 11 Westlake (CA) 22 27:31.5 91.4 102
532 Manon Cannard 12 Evanston Senior (UT) 2 27:39.1 91.0 262 54
533 Ellina (Elli) Perry 10 Davis (UT) (UT) 20 27:40.7 90.9 74
534 Elizabeth Buckway 9 Farmington (MO) 28 27:41.3 90.9 78
535 Yari Cerda 12 Evanston Senior (UT) 3 27:41.8 90.8 263 55
536 Ariana Brimhall 10 Springville (UT) 17 27:46.0 90.6 75
537 Maisey Nalder 10 Layton (UT) 16 27:46.2 90.6 76
538 Ashley Harvey 12 Bingham (UT) 18 27:47.3 90.5 56
539 Winston Hoffman 10 Rowland Hall (UT) 1 27:49.6 90.4 264 77
540 Isabella Hilmo 11 Skyridge (WA) 20 27:50.8 90.3 103
541 Dani Persson 9 Skyridge (WA) 21 27:55.5 90.1 79
542 Gracie Yates 10 Hurricane (WV) 8 27:57.4 90.0 78
543 Eliza Jenkins 12 Timpview (UT) 24 27:58.3 89.9 57
544 Natalie Whitehead 10 Blackfoot (ID) 14 28:01.8 89.8 79
545 Madelyn Markland 10 Skyridge (WA) 22 28:02.2 89.7 80
546 Maddie Gaskill 9 Viewmont (UT) 16 28:06.5 89.5 80
547 Megan McEwan 11 Skyridge (WA) 23 28:07.2 89.5 104
548 Amanda Rollins 9 Idaho Falls (ID) 18 28:08.4 89.4 81
549 Abigail Slama-Catron 12 Hillcrest (ID) 7 28:12.6 89.2 265 58
550 Amelia Hall 12 Pine View (UT) 13 28:13.0 89.2 59
551 Jenna Nelson 11 Layton (UT) 17 28:18.6 88.9 105
552 Zhihui Wang 9 Timpview (UT) 25 28:19.4 88.8 82
553 BreeAnna Thurgood 11 Viewmont (UT) 17 28:21.0 88.7 106
554 Kinzie Clegg 10 Northridge (IN) 12 28:21.3 88.7 81
555 Kassandra Walker 9 Timpview (UT) 26 28:21.7 88.7 83
556 Kaitlyn Updike 10 Hillcrest (ID) 8 28:22.2 88.7 82
557 Raygan Cazares 12 Evanston Senior (UT) 4 28:28.0 88.4 266 60
558 Charly Nelson 10 Hillcrest (ID) 9 28:29.9 88.3 83
559 Hope Sybrowsky 9 Timpview (UT) 27 28:32.2 88.2 84
560 Julia Torman 10 Farmington (MO) 29 28:37.2 87.9 84
561 Wilseydee Richardson 12 Tintic (UT) 3 28:37.5 87.9 267 61
562 Sofia Smith 9 Morgan (WA) 10 28:39.4 87.8 85
563 AnnMarie Wolfley 10 Snake River (ID) 11 28:42.4 87.6 85
564 Eklund Kalie 10 Weber (UT) 23 28:44.3 87.5 107
565 Sophie Beehler 12 Spanish Fork (UT) 13 28:56.0 87.0 62
566 Lizzie Markland 12 Skyridge (WA) 24 28:56.8 86.9 63
567 Evie Stahl 9 Evanston Senior (UT) 5 28:57.2 86.9 268 86
568 Analyn Schwebach 10 Mountain Ridge (AZ) 23 28:58.0 86.8 86
569 Abbey Dovenbarger 11 Layton (UT) 18 29:00.0 86.8 108
570 Nancy Willison 10 Salem Hills (UT) 13 29:01.4 86.7 87
571 Madilyn (Madi) Condie 9 Mountain Ridge (AZ) 24 29:01.5 86.7 87
572 Molly Chamberlain 12 Viewmont (UT) 18 29:02.8 86.6 64
573 Tyli Archibald 11 Morgan (WA) 11 29:03.0 86.6 109
574 Elena Escobedo 11 Pine View (UT) 14 29:07.5 86.4 110
575 Lily Moshifar 11 Waterford (WI) 1 29:10.3 86.2 111
576 Elsa Bottger 11 Skyridge (WA) 25 29:14.6 86.0 112
577 Emma Ashcraft 10 Salem Hills (UT) 14 29:15.2 86.0 88
578 Joie Mannino 12 Tintic (UT) 4 29:15.5 86.0 269 65
579 Esme Jorgensen 9 Hillcrest (ID) 10 29:17.8 85.9 88
580 Rachel Kobe 10 Morgan (WA) 12 29:26.4 85.5 89
581 Lily Griffin 9 Farmington (MO) 30 29:27.7 85.4 89
582 Kate Dewsnup 9 Farmington (MO) 31 29:28.5 85.4 90
583 Abbi Glenn 9 Farmington (MO) 32 29:32.3 85.2 91
584 Summer Foutz 10 Bountiful (UT) 9 29:36.4 85.0 90
585 Clara Cervera 10 Timpview (UT) 28 29:42.5 84.7 91
586 Talise Fenwick 10 Viewmont (UT) 19 29:47.9 84.4 92
587 Kay Erekson 12 Hillcrest (ID) 11 29:48.0 84.4 66
588 Ashlyn Monson 12 Bingham (UT) 19 29:49.2 84.4 67
589 Sarah Wright 12 Bountiful (UT) 10 29:49.6 84.3 68
590 Emma Bailey 12 Weber (UT) 24 29:50.5 84.3 113
591 Miriam Ehlers 12 Hurricane (WV) 9 29:51.4 84.3 93
592 Scotlyn Bradley 9 Summit Academy (UT) 5 29:54.7 84.1 270 92
593 Tymbre Palfreyman 11 Salem Hills (UT) 15 29:56.5 84.0 114
594 Haley Oscarson 12 Farmington (MO) 33 30:06.3 83.6 69
595 Lydia McPhie 11 Blackfoot (ID) 15 30:14.9 83.2 115
596 Charlize Tippetts 9 Evanston Senior (UT) 6 30:18.3 83.0 271 93
597 Teryn Shumway 9 Idaho Falls (ID) 19 30:21.5 82.9 94
598 Saydee Abel 12 Bountiful (UT) 11 30:24.3 82.7 70
599 Tatum Aston 10 Farmington (MO) 34 30:25.6 82.7 94
600 Randee Turner 9 Evanston Senior (UT) 7 30:30.4 82.5 272 95
601 Yoselyn Corona 10 Spanish Fork (UT) 14 30:34.5 82.3 116
602 Keilah Van Hees 12 Summit Academy (UT) 6 30:35.3 82.2 273 71
603 Tallulah Hamilton 11 Mountain View (CA) 3 30:38.8 82.1 117
604 Liesl Staska 11 Fremont (MI) 17 30:41.5 82.0 108
605 Annalise Johnson 11 Salem Hills (UT) 16 30:42.9 81.9 118
606 Elizabeth Geilman 9 Bountiful (UT) 12 30:48.9 81.6 96
607 Adelynne Steed 12 Salem Hills (UT) 17 30:59.9 81.2 72
608 Juliette Rasmussen 10 Lone Peak (UT) 34 31:03.6 81.0 95
609 Reagan Day 10 West Jordan (UT) 4 31:08.9 80.8 96
610 Pia Piccoli 10 Rowland Hall (UT) 2 31:22.5 80.2 274 97
611 Erika Prasthofer 10 Rowland Hall (UT) 3 31:31.4 79.8 275 98
612 Ruby McMaster 10 Rowland Hall (UT) 4 31:32.9 79.8 276 99
613 Cosette Curtis 10 Viewmont (UT) 20 31:38.3 79.5 100
614 Kate Roberts 9 Spanish Fork (UT) 15 31:39.6 79.5 101
615 Natasha Yost 11 Union (CA) 8 31:58.5 78.7 119
616 Abigail Quinn 9 Waterford (WI) 2 32:04.4 78.4 97
617 Paisley Snow 10 Union (CA) 9 32:19.0 77.8 120
618 Hallie Hinkson 10 Westlake (CA) 23 32:31.4 77.4 102
619 Lucy Kieffer 12 Springville (UT) 18 32:39.8 77.0 73
620 Mary Tayler 12 Timpview (UT) 29 32:45.3 76.8 74
621 Neha Dixit 11 Rowland Hall (UT) 5 32:53.1 76.5 277 121
622 Kate Harlow 12 Springville (UT) 19 33:23.7 75.3 75
623 Madison Mannino 10 Tintic (UT) 5 33:32.7 75.0 278 103
624 Xaya Olsen 9 Farmington (MO) 35 33:46.5 74.5 98
625 Nadja Browne 9 Provo (UT) 5 36:31.9 68.9 279 99
626 Leah Goodwin 9 Snake River (ID) 12 38:39.6 65.1 100